Location: Winthrop
(48.4780°N, 120.1850°W)
Time: 10:00:18
(UTC-07:00)

MOZHAYETS 4 - Visible Passes

Search period start: 17 May 2022 00:00
Search period end: 27 May 2022 00:00
Orbit: 661 x 678 km, 98.2° (Epoch: 17 May)

Date Brightness Start Highest point End Pass type
(mag) Time Alt. Az. Time Alt. Az. Time Alt. Az.
17 May 9.9 02:04:41 10° ESE 02:08:18 23° ENE 02:11:56 10° N visible
17 May 8.0 03:41:29 15° S 03:45:06 48° W 03:49:35 10° NNW visible
18 May 8.8 02:36:19 10° SE 02:40:38 43° ENE 02:45:01 10° N visible
18 May 8.9 04:14:21 11° SSW 04:17:54 24° W 04:21:41 10° NW visible
19 May 10.5 01:34:38 10° E 01:36:47 13° NE 01:38:55 10° NNE visible
19 May 7.7 03:09:02 13° SSE 03:13:08 85° ENE 03:17:47 10° NNW visible
20 May 9.9 02:05:20 10° ESE 02:08:58 24° ENE 02:12:38 10° N visible
20 May 8.0 03:41:55 13° S 03:45:46 47° W 03:50:16 10° NNW visible
21 May 8.8 02:36:58 10° SE 02:41:18 43° ENE 02:45:42 10° N visible
21 May 8.9 04:14:51 10° SSW 04:18:34 24° W 04:22:20 10° NW visible
22 May 10.5 01:35:15 10° E 01:37:26 13° NE 01:39:37 10° NNE visible
22 May 7.7 03:09:29 12° SSE 03:13:48 86° ENE 03:18:27 10° NNW visible
23 May 9.9 02:05:58 10° ESE 02:09:37 24° ENE 02:13:18 10° N visible
23 May 8.1 03:42:23 12° S 03:46:26 47° W 03:50:55 10° NNW visible
24 May 8.8 02:37:36 10° SE 02:41:57 44° ENE 02:46:22 10° N visible
24 May 9.0 04:15:30 10° SSW 04:19:14 24° W 04:22:59 10° NW visible
25 May 10.5 01:35:50 10° E 01:38:05 14° NE 01:40:19 10° NNE visible
25 May 7.7 03:09:57 11° SSE 03:14:27 87° ENE 03:19:06 10° NNW visible
26 May 9.8 02:06:35 10° ESE 02:10:15 24° ENE 02:13:58 10° N visible
26 May 8.1 03:42:49 11° S 03:47:04 46° W 03:51:34 10° NNW visible
